Weather History for Altus, OK

Change the Weather History Date:

Saturday, March 22, 2014

  Actual Average (KLTS) Record (KLTS)
Temperature  
Mean Temperature 51 °F -  
Max Temperature 57 °F 64 °F 87 °F (2011)
Min Temperature 45 °F 41 °F 21 °F (2002)
Degree Days  
Heating Degree Days 14    
Growing Degree Days 1 (Base 50)    
Moisture  
Dew Point 28 °F    
Average Humidity 41    
Maximum Humidity 58    
Minimum Humidity 30    
Precipitation  
Precipitation 0.00 in - - ()
Sea Level Pressure  
Sea Level Pressure 30.13 in    
Wind  
Wind Speed 20 mph (NE)    
Max Wind Speed 29 mph    
Max Gust Speed 34 mph    
Visibility 10 miles    
Events      
Averages and records for this station are not official NWS values.
T = Trace of Precipitation, MM = Missing Value Source: NWS Daily Summary

Daily Weather History Graph

Daily Weather History Graph

Search for Another Location

Airport:

Trip Planner

Search our weather history database for the weather conditions in past years. The results will help you decide how hot, cold, wet, or windy it might be!

Date:

Astronomy

Mar. 22, 2014 Rise Set
Actual Time 7:38 AM CDT 7:50 PM CDT
Civil Twilight 7:13 AM CDT 8:15 PM CDT
Nautical Twilight 6:43 AM CDT 8:45 PM CDT
Astronomical Twilight 6:13 AM CDT 9:15 PM CDT
Moon 1:00 AM CDT (3/22) 11:34 AM CDT (3/22)
Length of Visible Light 13h 02m
Length of Day
12h 12m
Waning Gibbous, 65% of the Moon is Illuminated
Mar 22
Waning Gibbous
Mar 23
Last Quarter
Mar 30
New
Apr 7
First Quarter
Apr 15
Full

Hourly Weather History & Observations

Time (CDT) Temp. Windchill Dew Point Humidity Pressure Visibility Wind Dir Wind Speed Gust Speed Precip Events Conditions
12:15 AM 57.4 °F - 26.8 °F 31% 30.03 in 10.0 mi NE 23.0 mph 34.5 mph N/A   Clear
12:35 AM 56.5 °F - 26.6 °F 32% 30.02 in 10.0 mi NE 24.2 mph 33.4 mph N/A   Clear
12:55 AM 55.9 °F - 26.4 °F 32% 30.01 in 10.0 mi NE 23.0 mph 33.4 mph N/A   Clear
1:15 AM 55.9 °F - 26.2 °F 32% 30.00 in 10.0 mi NE 25.3 mph 32.2 mph N/A   Clear
1:35 AM 56.1 °F - 25.7 °F 31% 30.00 in 10.0 mi NE 23.0 mph 31.1 mph N/A   Clear
1:55 AM 55.2 °F - 25.7 °F 32% 30.01 in 10.0 mi ENE 20.7 mph 27.6 mph N/A   Clear
2:15 AM 55.8 °F - 24.8 °F 30% 30.02 in 10.0 mi NE 24.2 mph 29.9 mph N/A   Clear
2:35 AM 54.7 °F - 24.6 °F 31% 30.04 in 10.0 mi NE 19.6 mph 27.6 mph N/A   Clear
2:55 AM 53.8 °F - 24.6 °F 32% 30.04 in 10.0 mi NE 19.6 mph - N/A   Clear
3:15 AM 53.1 °F - 24.8 °F 33% 30.04 in 10.0 mi NE 18.4 mph 25.3 mph N/A   Clear
3:35 AM 53.4 °F - 24.8 °F 33% 30.05 in 10.0 mi NNE 19.6 mph 25.3 mph N/A   Mostly Cloudy
3:55 AM 53.6 °F - 24.4 °F 32% 30.04 in 10.0 mi NE 21.9 mph 28.8 mph N/A   Overcast
4:20 AM 52.9 °F - 24.4 °F 33% 30.05 in 10.0 mi NNE 21.9 mph 29.9 mph N/A   Overcast
4:40 AM 52.2 °F - 24.3 °F 34% 30.06 in 10.0 mi NNE 23.0 mph 32.2 mph N/A   Overcast
4:55 AM 51.8 °F - 24.3 °F 34% 30.06 in 10.0 mi NE 19.6 mph 32.2 mph N/A   Overcast
5:15 AM 50.9 °F - 24.8 °F 36% 30.08 in 10.0 mi NE 23.0 mph 31.1 mph N/A   Overcast
5:35 AM 50.0 °F - 25.7 °F 39% 30.09 in 10.0 mi NE 20.7 mph 25.3 mph N/A   Overcast
5:55 AM 49.1 °F - 26.2 °F 41% 30.09 in 10.0 mi NE 19.6 mph 32.2 mph N/A   Overcast
6:20 AM 48.6 °F - 27.0 °F 43% 30.09 in 10.0 mi NE 23.0 mph 33.4 mph N/A   Overcast
6:35 AM 48.2 °F - 27.3 °F 44% 30.10 in 10.0 mi NE 23.0 mph 29.9 mph N/A   Overcast
6:55 AM 47.8 °F - 27.9 °F 46% 30.11 in 10.0 mi NE 23.0 mph 31.1 mph N/A   Overcast
7:15 AM 47.3 °F - 28.4 °F 48% 30.12 in 10.0 mi NE 23.0 mph 28.8 mph N/A   Overcast
7:40 AM 46.9 °F - 28.6 °F 49% 30.14 in 10.0 mi NE 20.7 mph 29.9 mph N/A   Overcast
7:55 AM 45.9 °F 37.8 °F 28.8 °F 51% 30.15 in 10.0 mi NE 21.9 mph 27.6 mph N/A   Mostly Cloudy
8:15 AM 45.9 °F 38.0 °F 29.3 °F 52% 30.16 in 10.0 mi NE 20.7 mph 28.8 mph N/A   Mostly Cloudy
8:35 AM 46.0 °F 38.8 °F 29.5 °F 52% 30.16 in 10.0 mi NE 18.4 mph 25.3 mph N/A   Overcast
8:55 AM 45.7 °F 37.1 °F 30.0 °F 54% 30.17 in 10.0 mi NE 24.2 mph 27.6 mph N/A   Overcast
9:15 AM 45.5 °F 36.1 °F 30.2 °F 55% 30.17 in 10.0 mi NE 28.8 mph 32.2 mph N/A   Overcast
9:35 AM 45.1 °F 37.1 °F 30.7 °F 57% 30.19 in 10.0 mi NNE 20.7 mph 28.8 mph N/A   Overcast
9:55 AM 45.1 °F 36.2 °F 31.1 °F 58% 30.19 in 10.0 mi NNE 25.3 mph 29.9 mph N/A   Mostly Cloudy
10:15 AM 45.5 °F 37.1 °F 31.1 °F 57% 30.20 in 10.0 mi NNE 23.0 mph 28.8 mph N/A   Mostly Cloudy
10:35 AM 45.7 °F 38.0 °F 31.1 °F 57% 30.21 in 10.0 mi NNE 19.6 mph - N/A   Mostly Cloudy
10:55 AM 45.5 °F 37.8 °F 31.1 °F 57% 30.21 in 10.0 mi NNE 19.6 mph 25.3 mph N/A   Overcast
11:15 AM 45.1 °F 36.9 °F 30.9 °F 58% 30.21 in 10.0 mi NNE 21.9 mph 26.5 mph N/A   Overcast
11:35 AM 45.7 °F 37.6 °F 31.1 °F 57% 30.20 in 10.0 mi NE 21.9 mph 25.3 mph N/A   Overcast
11:55 AM 47.3 °F - 31.3 °F 54% 30.20 in 10.0 mi NE 19.6 mph - N/A   Overcast
12:15 PM 48.0 °F - 31.6 °F 53% 30.19 in 10.0 mi NE 19.6 mph 24.2 mph N/A   Overcast
12:35 PM 48.6 °F - 31.1 °F 51% 30.19 in 10.0 mi NNE 15.0 mph - N/A   Overcast
12:55 PM 50.2 °F - 31.6 °F 49% 30.18 in 10.0 mi NNE 17.3 mph 20.7 mph N/A   Overcast
1:15 PM 51.1 °F - 31.5 °F 47% 30.17 in 10.0 mi NNE 17.3 mph - N/A   Overcast
1:40 PM 53.1 °F - 30.9 °F 43% 30.16 in 10.0 mi NNE 18.4 mph 23.0 mph N/A   Overcast
1:55 PM 53.2 °F - 28.9 °F 39% 30.15 in 10.0 mi NE 17.3 mph - N/A   Overcast
2:15 PM 53.8 °F - 28.2 °F 37% 30.15 in 10.0 mi NNE 18.4 mph 24.2 mph N/A   Overcast
2:35 PM 54.0 °F - 27.5 °F 36% 30.14 in 10.0 mi NE 15.0 mph 21.9 mph N/A   Overcast
2:55 PM 55.2 °F - 27.1 °F 34% 30.13 in 10.0 mi NE 15.0 mph - N/A   Overcast
3:15 PM 54.7 °F - 27.3 °F 35% 30.12 in 10.0 mi NE 17.3 mph 21.9 mph N/A   Mostly Cloudy
3:35 PM 56.1 °F - 27.1 °F 33% 30.12 in 10.0 mi NE 16.1 mph 20.7 mph N/A   Mostly Cloudy
3:55 PM 55.8 °F - 26.4 °F 32% 30.11 in 10.0 mi NE 16.1 mph 20.7 mph N/A   Scattered Clouds
4:15 PM 56.3 °F - 27.1 °F 33% 30.10 in 10.0 mi ENE 15.0 mph 23.0 mph N/A   Mostly Cloudy
4:35 PM 56.3 °F - 27.5 °F 33% 30.10 in 10.0 mi ENE 11.5 mph 20.7 mph N/A   Overcast
4:55 PM 56.3 °F - 28.2 °F 34% 30.10 in 10.0 mi ENE 12.7 mph 18.4 mph N/A   Overcast
5:15 PM 57.2 °F - 28.6 °F 34% 30.09 in 10.0 mi NE 13.8 mph 21.9 mph N/A   Overcast
5:35 PM 55.6 °F - 28.0 °F 35% 30.09 in 10.0 mi NE 16.1 mph 23.0 mph N/A   Overcast
5:55 PM 55.4 °F - 28.2 °F 35% 30.09 in 10.0 mi ENE 11.5 mph 18.4 mph N/A   Overcast
6:15 PM 55.8 °F - 28.2 °F 35% 30.09 in 10.0 mi ENE 15.0 mph - N/A   Overcast
6:35 PM 55.2 °F - 27.3 °F 34% 30.10 in 10.0 mi ENE 11.5 mph 18.4 mph N/A   Overcast
6:55 PM 55.4 °F - 27.7 °F 35% 30.10 in 10.0 mi NE 13.8 mph - N/A   Overcast
7:15 PM 54.5 °F - 27.3 °F 35% 30.11 in 10.0 mi ENE 10.4 mph 17.3 mph N/A   Mostly Cloudy
7:35 PM 53.6 °F - 27.3 °F 36% 30.12 in 10.0 mi NE 13.8 mph 17.3 mph N/A   Mostly Cloudy
7:55 PM 51.8 °F - 27.9 °F 40% 30.12 in 10.0 mi NE 11.5 mph - N/A   Scattered Clouds
8:20 PM 50.7 °F - 27.7 °F 41% 30.14 in 10.0 mi NE 12.7 mph 16.1 mph N/A   Scattered Clouds
8:35 PM 50.2 °F - 27.5 °F 42% 30.16 in 10.0 mi NNE 10.4 mph - N/A   Scattered Clouds
8:55 PM 48.9 °F - 28.0 °F 44% 30.16 in 10.0 mi NNE 10.4 mph - N/A   Mostly Cloudy
9:15 PM 49.8 °F - 27.3 °F 42% 30.18 in 10.0 mi NNE 10.4 mph - N/A   Overcast
9:35 PM 49.6 °F - 27.1 °F 42% 30.19 in 10.0 mi North 10.4 mph - N/A   Overcast
9:55 PM 49.5 °F - 27.5 °F 43% 30.21 in 10.0 mi NNE 9.2 mph - N/A   Overcast
10:15 PM 50.2 °F - 27.0 °F 41% 30.21 in 10.0 mi NNE 10.4 mph - N/A   Overcast
10:35 PM 51.1 °F - 25.9 °F 38% 30.23 in 10.0 mi NNE 11.5 mph - N/A   Overcast
10:55 PM 51.4 °F - 25.7 °F 37% 30.23 in 10.0 mi NNE 11.5 mph 17.3 mph N/A   Overcast
11:15 PM 51.8 °F - 25.7 °F 36% 30.24 in 10.0 mi NNE 12.7 mph - N/A   Overcast
11:35 PM 51.8 °F - 25.2 °F 36% 30.25 in 10.0 mi NE 16.1 mph - N/A   Overcast